Time,TemperatureF,DewpointF,PressureIn,WindDirection,WindDirectionDegrees,WindSpeedMPH,WindSpeedGustMPH,Humidity,HourlyPrecipIn,Conditions,Clouds,dailyrainin,SoftwareType,DateUTC
2013-03-13 00:09:00,51.3,51.0,29.73,SSW,195,0.0,0.0,98,0.00,,,0.00,weatherlink.com 1.10,2013-03-13 04:09:00,
2013-03-13 00:24:00,51.3,51.0,29.73,SSE,166,0.0,1.0,98,0.00,,,0.00,weatherlink.com 1.10,2013-03-13 04:24:00,
2013-03-13 00:39:00,51.3,51.0,29.71,SSE,160,1.0,1.0,98,0.00,,,0.00,weatherlink.com 1.10,2013-03-13 04:39:00,
2013-03-13 00:54:00,50.9,50.0,29.71,NW,315,2.0,7.0,98,0.01,,,0.01,weatherlink.com 1.10,2013-03-13 04:54:00,
2013-03-13 01:09:00,49.3,49.0,29.71,WNW,302,3.0,6.0,97,0.01,,,0.01,weatherlink.com 1.10,2013-03-13 05:09:00,
2013-03-13 01:24:00,48.4,48.0,29.72,NW,319,2.0,6.0,97,0.01,,,0.01,weatherlink.com 1.10,2013-03-13 05:24:00,
2013-03-13 01:39:00,46.5,46.0,29.72,NW,312,1.0,5.0,96,0.01,,,0.01,weatherlink.com 1.10,2013-03-13 05:39:00,
2013-03-13 01:54:00,45.3,45.0,29.74,WNW,302,1.0,5.0,97,0.00,,,0.01,weatherlink.com 1.10,2013-03-13 05:54:00,
2013-03-13 02:09:00,44.7,44.0,29.74,WNW,282,0.0,4.0,97,0.00,,,0.01,weatherlink.com 1.10,2013-03-13 06:09:00,
2013-03-13 02:24:00,44.2,43.0,29.74,NW,307,2.0,4.0,97,0.00,,,0.01,weatherlink.com 1.10,2013-03-13 06:24:00,
2013-03-13 02:39:00,43.9,43.0,29.75,NW,316,3.0,7.0,95,0.00,,,0.01,weatherlink.com 1.10,2013-03-13 06:39:00,
2013-03-13 02:54:00,43.7,42.0,29.74,NNW,338,1.0,4.0,95,0.00,,,0.01,weatherlink.com 1.10,2013-03-13 06:54:00,
2013-03-13 03:09:00,43.4,42.0,29.74,NW,315,0.0,3.0,95,0.00,,,0.01,weatherlink.com 1.10,2013-03-13 07:09:00,
2013-03-13 03:24:00,43.1,42.0,29.73,NW,308,1.0,2.0,95,0.00,,,0.01,weatherlink.com 1.10,2013-03-13 07:24:00,
2013-03-13 03:39:00,42.9,41.0,29.74,WNW,298,1.0,3.0,94,0.00,,,0.01,weatherlink.com 1.10,2013-03-13 07:39:00,
2013-03-13 03:54:00,42.6,41.0,29.74,North,350,1.0,4.0,93,0.00,,,0.01,weatherlink.com 1.10,2013-03-13 07:54:00,
2013-03-13 04:09:00,42.3,41.0,29.75,NW,307,1.0,3.0,93,0.00,,,0.01,weatherlink.com 1.10,2013-03-13 08:09:00,
2013-03-13 04:25:00,42.1,40.0,29.75,WNW,298,1.0,6.0,92,0.00,,,0.01,weatherlink.com 1.10,2013-03-13 08:25:00,
2013-03-13 04:40:00,41.8,39.0,29.74,NW,326,1.0,4.0,91,0.00,,,0.01,weatherlink.com 1.10,2013-03-13 08:40:00,
2013-03-13 04:55:00,41.3,39.0,29.75,WNW,293,1.0,5.0,90,0.00,,,0.01,weatherlink.com 1.10,2013-03-13 08:55:00,
2013-03-13 05:10:00,40.9,38.0,29.75,NW,316,2.0,5.0,90,0.00,,,0.01,weatherlink.com 1.10,2013-03-13 09:10:00,
2013-03-13 05:25:00,40.5,38.0,29.75,NW,323,5.0,5.0,89,0.00,,,0.01,weatherlink.com 1.10,2013-03-13 09:25:00,
2013-03-13 05:40:00,40.0,37.0,29.76,NW,315,2.0,3.0,88,0.00,,,0.01,weatherlink.com 1.10,2013-03-13 09:40:00,
2013-03-13 05:55:00,39.5,36.0,29.76,NW,305,0.0,3.0,88,0.00,,,0.01,weatherlink.com 1.10,2013-03-13 09:55:00,
2013-03-13 06:10:00,38.8,36.0,29.75,NW,316,1.0,3.0,88,0.00,,,0.01,weatherlink.com 1.10,2013-03-13 10:10:00,
2013-03-13 06:25:00,38.4,35.0,29.76,WNW,298,0.0,2.0,88,0.00,,,0.01,weatherlink.com 1.10,2013-03-13 10:25:00,
2013-03-13 06:40:00,38.0,35.0,29.76,NW,311,2.0,5.0,88,0.00,,,0.01,weatherlink.com 1.10,2013-03-13 10:40:00,
2013-03-13 06:55:00,37.7,34.0,29.75,NW,321,1.0,4.0,87,0.00,,,0.01,weatherlink.com 1.10,2013-03-13 10:55:00,
2013-03-13 07:11:00,37.5,34.0,29.75,NW,315,1.0,5.0,87,0.00,,,0.01,weatherlink.com 1.10,2013-03-13 11:11:00,
2013-03-13 07:25:00,37.3,34.0,29.76,NW,305,1.0,2.0,87,0.00,,,0.01,weatherlink.com 1.10,2013-03-13 11:25:00,
2013-03-13 07:40:00,37.4,34.0,29.76,NW,305,3.0,4.0,86,0.00,,,0.01,weatherlink.com 1.10,2013-03-13 11:40:00,
2013-03-13 07:55:00,37.9,34.0,29.77,WNW,295,0.0,3.0,85,0.00,,,0.01,weatherlink.com 1.10,2013-03-13 11:55:00,
2013-03-13 08:10:00,38.4,34.0,29.77,WNW,297,1.0,3.0,84,0.00,,,0.01,weatherlink.com 1.10,2013-03-13 12:10:00,
2013-03-13 08:25:00,38.9,34.0,29.76,NW,322,2.0,4.0,83,0.00,,,0.01,weatherlink.com 1.10,2013-03-13 12:25:00,
2013-03-13 08:40:00,40.0,35.0,29.76,NW,316,1.0,4.0,81,0.00,,,0.01,weatherlink.com 1.10,2013-03-13 12:40:00,
2013-03-13 08:55:00,40.8,35.0,29.76,WNW,287,2.0,5.0,79,0.00,,,0.01,weatherlink.com 1.10,2013-03-13 12:55:00,
2013-03-13 09:10:00,41.3,35.0,29.76,WNW,290,1.0,7.0,77,0.00,,,0.01,weatherlink.com 1.10,2013-03-13 13:10:00,
2013-03-13 09:25:00,42.2,35.0,29.76,WNW,298,2.0,4.0,76,0.00,,,0.01,weatherlink.com 1.10,2013-03-13 13:25:00,
2013-03-13 09:40:00,42.6,34.0,29.75,NW,319,1.0,4.0,72,0.00,,,0.01,weatherlink.com 1.10,2013-03-13 13:40:00,
2013-03-13 09:55:00,43.0,34.0,29.76,NW,323,1.0,9.0,71,0.00,,,0.01,weatherlink.com 1.10,2013-03-13 13:55:00,
2013-03-13 10:10:00,43.0,35.0,29.76,NNW,340,1.0,4.0,72,0.00,,,0.01,weatherlink.com 1.10,2013-03-13 14:10:00,
2013-03-13 10:25:00,44.1,35.0,29.75,WNW,293,3.0,4.0,71,0.00,,,0.01,weatherlink.com 1.10,2013-03-13 14:25:00,
2013-03-13 10:40:00,44.9,36.0,29.74,WNW,285,1.0,8.0,70,0.00,,,0.01,weatherlink.com 1.10,2013-03-13 14:40:00,
2013-03-13 10:55:00,45.7,35.0,29.74,North,7,2.0,5.0,67,0.00,,,0.01,weatherlink.com 1.10,2013-03-13 14:55:00,
2013-03-13 11:10:00,46.1,35.0,29.74,WNW,295,9.0,9.0,66,0.00,,,0.01,weatherlink.com 1.10,2013-03-13 15:10:00,
2013-03-13 11:25:00,46.4,34.0,29.74,WNW,298,1.0,5.0,63,0.00,,,0.01,weatherlink.com 1.10,2013-03-13 15:25:00,
2013-03-13 11:40:00,46.9,34.0,29.74,WNW,290,5.0,7.0,62,0.00,,,0.01,weatherlink.com 1.10,2013-03-13 15:40:00,
2013-03-13 11:55:00,47.5,34.0,29.74,NW,319,2.0,5.0,61,0.00,,,0.01,weatherlink.com 1.10,2013-03-13 15:55:00,
2013-03-13 12:10:00,48.2,35.0,29.74,NNW,339,1.0,5.0,61,0.00,,,0.01,weatherlink.com 1.10,2013-03-13 16:10:00,
2013-03-13 12:25:00,48.1,35.0,29.74,NW,304,4.0,5.0,60,0.00,,,0.01,weatherlink.com 1.10,2013-03-13 16:25:00,
2013-03-13 12:40:00,49.3,34.0,29.73,NW,309,3.0,9.0,56,0.00,,,0.01,weatherlink.com 1.10,2013-03-13 16:40:00,
2013-03-13 12:55:00,50.3,35.0,29.72,WNW,300,5.0,8.0,57,0.00,,,0.01,weatherlink.com 1.10,2013-03-13 16:55:00,
2013-03-13 13:10:00,51.1,36.0,29.72,NW,326,4.0,8.0,57,0.00,,,0.01,weatherlink.com 1.10,2013-03-13 17:10:00,
2013-03-13 13:25:00,51.2,35.0,29.71,WNW,293,1.0,5.0,54,0.00,,,0.01,weatherlink.com 1.10,2013-03-13 17:25:00,
2013-03-13 13:40:00,50.6,34.0,29.72,WNW,283,7.0,9.0,54,0.00,,,0.01,weatherlink.com 1.10,2013-03-13 17:40:00,
2013-03-13 13:55:00,50.9,34.0,29.71,NNW,329,2.0,11.0,52,0.00,,,0.01,weatherlink.com 1.10,2013-03-13 17:55:00,
2013-03-13 14:10:00,50.9,33.0,29.71,NW,308,3.0,13.0,50,0.00,,,0.01,weatherlink.com 1.10,2013-03-13 18:10:00,
2013-03-13 14:25:00,50.8,32.0,29.70,NW,305,4.0,9.0,49,0.00,,,0.01,weatherlink.com 1.10,2013-03-13 18:25:00,
2013-03-13 14:40:00,50.7,31.0,29.70,WNW,288,5.0,9.0,48,0.00,,,0.01,weatherlink.com 1.10,2013-03-13 18:40:00,
2013-03-13 14:55:00,50.4,32.0,29.70,WNW,290,2.0,9.0,49,0.00,,,0.01,weatherlink.com 1.10,2013-03-13 18:55:00,
2013-03-13 15:11:00,50.5,31.0,29.70,NNW,339,1.0,8.0,48,0.00,,,0.01,weatherlink.com 1.10,2013-03-13 19:11:00,
2013-03-13 15:26:00,50.8,31.0,29.70,NNW,331,1.0,9.0,46,0.00,,,0.01,weatherlink.com 1.10,2013-03-13 19:26:00,
2013-03-13 15:41:00,51.3,32.0,29.69,West,277,3.0,6.0,48,0.00,,,0.01,weatherlink.com 1.10,2013-03-13 19:41:00,
2013-03-13 15:56:00,51.0,30.0,29.69,WNW,301,3.0,6.0,45,0.00,,,0.01,weatherlink.com 1.10,2013-03-13 19:56:00,
2013-03-13 16:11:00,50.9,29.0,29.69,NW,317,1.0,7.0,44,0.00,,,0.01,weatherlink.com 1.10,2013-03-13 20:11:00,
2013-03-13 16:26:00,50.8,27.0,29.69,WNW,292,3.0,8.0,40,0.00,,,0.01,weatherlink.com 1.10,2013-03-13 20:26:00,
2013-03-13 16:41:00,50.5,27.0,29.69,WSW,248,2.0,6.0,40,0.00,,,0.01,weatherlink.com 1.10,2013-03-13 20:41:00,
2013-03-13 17:11:00,49.7,25.0,29.70,NW,323,2.0,9.0,39,0.00,,,0.01,weatherlink.com 1.10,2013-03-13 21:11:00,
2013-03-13 17:41:00,48.7,24.0,29.70,WNW,297,3.0,8.0,38,0.00,,,0.01,weatherlink.com 1.10,2013-03-13 21:41:00,
2013-03-13 17:56:00,48.3,25.0,29.71,NW,308,3.0,7.0,40,0.00,,,0.01,weatherlink.com 1.10,2013-03-13 21:56:00,
2013-03-13 18:26:00,46.7,25.0,29.72,WNW,302,3.0,6.0,42,0.00,,,0.01,weatherlink.com 1.10,2013-03-13 22:26:00,
2013-03-13 18:41:00,46.1,25.0,29.73,WNW,292,2.0,6.0,43,0.00,,,0.01,weatherlink.com 1.10,2013-03-13 22:41:00,
2013-03-13 18:56:00,45.5,23.0,29.73,NNW,348,2.0,9.0,42,0.00,,,0.01,weatherlink.com 1.10,2013-03-13 22:56:00,
2013-03-13 19:41:00,43.0,25.0,29.75,WNW,302,0.0,1.0,49,0.00,,,0.01,weatherlink.com 1.10,2013-03-13 23:41:00,
2013-03-13 20:11:00,39.3,26.0,29.76,WNW,302,0.0,0.0,60,0.00,,,0.01,weatherlink.com 1.10,2013-03-14 00:11:00,
2013-03-13 20:26:00,38.1,26.0,29.77,WNW,302,0.0,0.0,61,0.00,,,0.01,weatherlink.com 1.10,2013-03-14 00:26:00,
2013-03-13 20:41:00,37.1,27.0,29.77,NW,304,0.0,0.0,66,0.00,,,0.01,weatherlink.com 1.10,2013-03-14 00:41:00,
2013-03-13 20:56:00,36.2,25.0,29.77,NW,304,0.0,0.0,63,0.00,,,0.01,weatherlink.com 1.10,2013-03-14 00:56:00,
2013-03-13 21:11:00,35.9,26.0,29.77,NW,304,0.0,0.0,67,0.00,,,0.01,weatherlink.com 1.10,2013-03-14 01:11:00,
2013-03-13 21:26:00,35.3,26.0,29.77,NW,304,0.0,0.0,69,0.00,,,0.01,weatherlink.com 1.10,2013-03-14 01:26:00,
2013-03-13 21:41:00,34.7,27.0,29.77,NW,304,0.0,0.0,72,0.00,,,0.01,weatherlink.com 1.10,2013-03-14 01:41:00,
2013-03-13 21:56:00,33.5,24.0,29.77,NW,304,0.0,0.0,69,0.00,,,0.01,weatherlink.com 1.10,2013-03-14 01:56:00,
2013-03-13 22:11:00,32.5,25.0,29.77,NW,304,0.0,0.0,74,0.00,,,0.01,weatherlink.com 1.10,2013-03-14 02:11:00,
2013-03-13 22:26:00,32.1,24.0,29.77,NW,304,0.0,0.0,73,0.00,,,0.01,weatherlink.com 1.10,2013-03-14 02:26:00,
2013-03-13 22:41:00,32.3,26.0,29.77,NW,304,0.0,0.0,78,0.00,,,0.01,weatherlink.com 1.10,2013-03-14 02:41:00,
2013-03-13 22:56:00,32.0,26.0,29.77,NW,304,0.0,0.0,77,0.00,,,0.01,weatherlink.com 1.10,2013-03-14 02:56:00,
2013-03-13 23:11:00,31.6,26.0,29.77,NW,304,0.0,0.0,80,0.00,,,0.01,weatherlink.com 1.10,2013-03-14 03:11:00,
2013-03-13 23:42:00,31.1,26.0,29.77,NW,304,0.0,0.0,81,0.00,,,0.01,weatherlink.com 1.10,2013-03-14 03:42:00,
2013-03-13 23:56:00,30.9,25.0,29.76,NW,304,0.0,0.0,80,0.00,,,0.01,weatherlink.com 1.10,2013-03-14 03:56:00,